Wind_Speed
29 32 33 32 31 30 29 28 28 28 28 28 28 28 29 30 32 33 34 35 36 37 38 38 38 39 39 40 41 42 42 42 42 41 39 38 37 35 35 35 35 34 33
33 35 35 32 31 30 29 29 30 30 29 29 30 31 32 33 34 35 36 36 36 37 37 37 36 36 35 35 36 37 38 38 38 38 37 36 35 34 34 35 35 34 34
36 35 33 30 29 30 31 32 31 30 30 30 30 30 31 32 34 36 37 38 39 39 39 39 39 38 36 35 35 35 35 36 36 37 37 36 35 36 36 36 36 36 35
35 32 29 28 29 31 31 31 29 28 28 28 27 26 27 29 31 33 35 36 38 40 41 41 41 41 40 38 37 36 36 37 37 38 38 37 36 35 35 37 37 38 36
31 28 26 27 29 30 29 28 26 25 23 22 22 22 24 26 29 32 34 35 36 38 39 40 41 41 41 40 39 38 37 37 37 37 37 37 36 36 35 35 36 37 36
25 25 26 27 28 27 26 25 24 22 20 20 21 23 25 26 29 31 33 35 35 36 37 39 40 41 42 41 40 39 38 37 37 37 37 38 38 37 37 36 35 37 36
24 25 25 25 26 26 25 24 22 21 22 23 25 27 28 30 31 32 34 35 36 36 36 36 38 40 41 41 42 41 40 39 39 39 39 39 39 38 38 37 36 37 36
23 22 22 23 25 25 24 23 23 24 26 28 30 31 32 34 35 35 36 37 37 37 36 35 36 37 38 40 41 41 42 41 41 40 40 39 39 38 37 36 35 35 33
19 19 21 23 25 26 26 26 27 29 31 33 34 35 36 37 37 37 37 37 38 39 38 36 34 34 35 36 37 38 40 41 41 40 39 39 37 36 35 34 33 31 29
22 23 25 27 28 30 31 32 33 34 35 36 36 38 39 39 39 39 38 38 38 39 39 37 34 32 32 33 33 34 36 37 38 38 37 35 34 33 32 31 29 28 27
29 30 32 33 35 36 37 38 38 37 37 37 37 39 40 41 41 40 39 38 38 39 39 37 33 31 30 30 29 30 31 32 33 33 32 31 30 30 29 28 27 26 25
36 37 39 40 41 42 43 43 44 43 42 41 40 40 42 42 41 40 39 38 38 38 38 37 33 31 29 27 26 26 26 27 27 27 27 27 26 25 25 26 26 26 27
42 43 44 46 47 47 48 48 49 49 48 46 45 43 43 42 41 40 39 38 38 38 37 35 33 30 28 27 25 24 23 22 22 22 23 24 24 24 25 27 27 28 29
46 48 49 51 51 51 52 52 52 53 53 52 50 47 44 43 43 42 41 39 38 38 37 34 32 30 28 26 25 23 21 20 20 20 21 23 24 25 27 29 29 29 29
51 53 54 56 57 57 57 57 57 58 59 58 56 51 48 46 45 45 44 42 40 39 37 34 32 30 28 26 24 22 20 19 19 20 20 21 23 24 25 26 26 25 23
56 58 60 62 63 62 60 59 59 60 60 60 58 55 54 52 50 49 47 46 43 40 38 34 32 29 28 25 23 21 18 18 19 20 20 20 20 21 20 19 18 17 16
59 62 63 63 64 64 63 63 62 62 63 64 64 63 61 59 57 54 51 47 45 42 39 35 32 29 27 25 23 21 18 18 19 19 19 19 18 17 17 16 16 16 16
60 63 65 66 68 70 72 73 71 70 72 73 72 71 69 65 62 58 53 49 46 43 41 36 32 29 26 24 22 20 18 18 19 18 17 17 16 16 16 16 16 15 15
75 77 79 81 82 84 85 86 84 82 81 79 77 75 71 67 63 59 55 51 48 45 42 37 32 29 26 24 21 19 18 17 17 17 16 16 15 16 16 15 15 15 13
81 83 85 86 87 88 90 89 88 86 83 79 75 70 65 60 57 55 53 51 49 46 43 39 33 29 27 23 21 18 17 16 15 14 14 14 14 14 15 15 14 13 12
84 85 85 85 84 83 83 83 81 78 74 68 61 54 48 45 44 45 47 48 47 46 43 39 34 30 27 24 21 19 18 15 14 13 13 13 13 14 14 14 13 12 12
76 73 71 68 64 62 61 60 58 54 50 44 38 35 32 31 34 36 40 44 45 44 42 40 35 31 28 24 21 19 18 16 14 14 14 15 15 14 13 13 13 13 12
58 54 51 47 43 42 43 43 40 37 33 30 28 27 28 29 30 33 37 41 43 41 41 40 35 32 28 25 22 20 19 18 17 15 15 15 15 14 13 14 14 14 13
44 41 40 38 36 35 36 36 35 33 30 29 29 30 31 31 31 32 34 40 44 40 39 39 35 32 28 24 21 20 19 19 19 17 16 15 15 14 14 15 15 14 13
39 40 41 41 40 40 38 36 37 37 36 36 34 34 34 33 32 31 32 38 45 43 40 38 35 31 27 24 22 20 19 20 20 19 17 15 15 16 15 15 14 14 13
45 46 47 48 48 47 45 43 41 41 41 40 39 37 35 34 33 30 31 37 44 44 41 39 35 31 29 27 24 22 20 20 20 19 17 16 16 16 16 15 14 14 13
Wind_Direction
288 296 301 302 301 301 302 305 307 305 302 302 304 303 301 298 294 291 288 286 284 282 282 281 281 279 278 276 275 274 273 272 272 271 272 273 274 275 272 270 270 270 269
292 298 300 299 298 300 304 308 309 309 306 304 303 303 302 300 298 295 292 289 286 283 282 281 280 280 279 278 276 275 273 272 271 271 272 273 273 272 270 269 269 268 267
293 294 293 292 294 299 304 308 310 312 311 310 309 308 307 306 305 302 298 293 289 285 282 279 278 277 276 276 276 275 273 272 271 272 274 275 273 269 268 268 267 267 268
287 285 284 286 293 299 303 307 310 312 313 314 315 316 317 317 316 313 307 300 293 287 283 280 277 275 275 274 274 274 274 272 272 273 274 275 275 272 269 267 267 267 267
278 277 281 288 293 297 301 303 304 305 308 312 316 320 323 325 325 324 319 312 303 295 287 281 277 275 274 274 274 275 274 273 273 273 273 274 276 275 273 269 266 266 267
273 278 283 287 290 293 295 294 294 296 301 306 311 315 317 320 324 326 326 322 315 305 295 286 280 275 273 273 273 274 274 273 273 273 273 273 275 276 274 272 268 268 267
274 277 280 282 283 284 285 285 287 292 297 301 305 309 312 316 319 322 325 326 322 314 304 294 286 280 275 273 271 271 271 271 271 271 272 273 274 274 273 271 268 267 266
274 275 276 274 273 275 278 283 289 295 300 303 307 310 312 315 318 320 323 326 326 321 313 303 293 284 279 275 272 270 269 269 268 269 270 272 273 273 271 268 266 265 263
279 277 272 270 272 277 284 292 298 300 303 306 309 310 311 314 316 317 320 323 326 325 320 312 303 293 285 278 274 270 268 267 267 267 268 270 270 270 268 264 262 260 258
285 284 284 285 289 294 299 302 303 303 304 306 307 308 309 311 312 314 315 318 322 325 323 317 310 303 295 287 279 273 269 267 266 266 267 267 267 265 261 257 254 252 248
288 290 292 293 296 299 301 302 302 302 303 304 305 306 307 308 309 310 313 315 318 322 323 320 315 310 304 296 289 280 273 269 267 266 264 263 261 257 252 248 243 240 236
290 291 293 294 295 297 299 301 301 301 301 301 303 305 306 306 306 308 309 311 314 317 319 319 316 313 309 303 297 289 278 271 267 264 260 256 253 248 242 238 233 231 226
289 290 290 291 293 295 296 297 297 297 298 298 300 302 302 302 303 304 306 309 311 313 315 315 314 312 310 308 304 294 281 271 265 260 255 249 243 239 235 232 230 232 231
287 287 287 288 289 290 291 292 294 294 295 295 296 297 298 298 299 301 303 306 307 308 310 311 309 309 308 307 305 296 282 269 260 251 245 237 233 233 227 226 228 231 231
285 285 285 286 286 286 287 288 289 291 291 291 291 293 294 296 297 297 299 301 302 303 303 305 303 303 303 303 302 296 280 264 253 244 235 226 219 219 219 218 222 226 230
284 283 284 284 283 282 282 282 284 286 287 287 287 289 291 293 293 292 293 294 295 296 296 296 296 296 297 297 297 295 278 263 257 249 237 228 223 218 213 210 210 213 214
281 279 277 275 274 275 276 279 282 283 284 285 285 287 289 289 288 287 286 286 287 287 287 287 287 287 289 290 289 287 279 264 260 252 241 234 230 223 215 210 207 207 209
281 280 278 277 277 279 281 282 282 282 282 283 284 284 284 284 283 281 279 278 278 278 278 278 278 278 280 281 281 280 277 265 255 247 242 237 230 223 218 214 209 207 207
283 282 281 281 281 281 282 283 283 282 282 281 281 282 281 280 278 275 272 269 268 267 268 268 268 268 270 272 272 273 270 260 247 241 236 233 230 229 221 214 209 206 205
284 284 284 284 284 284 284 283 283 282 282 282 282 281 280 277 273 268 263 259 259 257 257 258 258 258 260 262 261 263 261 253 243 236 230 223 221 219 212 206 203 200 202
287 287 287 286 286 286 286 285 284 283 282 280 279 276 273 270 267 263 255 248 247 247 249 250 250 250 251 252 251 252 248 241 231 221 213 208 205 201 196 193 194 194 195
293 293 293 293 293 292 291 290 288 285 279 273 267 262 261 264 265 262 253 239 235 236 240 243 243 243 243 244 243 241 235 224 211 205 198 193 189 188 191 194 194 193 196
298 297 297 298 298 297 296 295 291 285 275 263 257 258 262 269 274 268 254 238 229 225 232 236 236 234 235 236 235 232 225 212 203 199 194 191 190 193 197 195 194 197 204
301 300 300 300 300 299 298 297 293 287 277 268 265 266 269 272 276 271 257 239 225 219 222 229 227 225 226 227 225 221 214 202 196 194 192 192 193 195 196 196 200 207 210
306 302 301 300 298 296 294 292 288 283 278 274 271 269 269 272 272 268 257 238 223 217 214 216 214 215 217 217 214 208 201 194 192 193 194 194 196 198 200 204 209 212 213
307 303 300 298 296 293 290 287 283 278 275 272 271 268 268 269 267 263 253 236 222 212 206 204 201 203 207 208 204 199 193 189 190 194 197 197 198 202 206 210 213 215 216
Height
5870 5868 5865 5861 5858 5856 5853 5851 5849 5846 5844 5843 5841 5839 5838 5836 5833 5831 5829 5826 5824 5822 5820 5819 5817 5816 5816 5816 5815 5814 5813 5813 5813 5812 5813 5814 5814 5814 5815 5814 5815 5816 5816
5863 5861 5858 5855 5852 5850 5847 5845 5842 5840 5837 5835 5834 5832 5830 5828 5826 5824 5821 5818 5816 5813 5811 5809 5808 5806 5806 5805 5804 5803 5803 5803 5802 5802 5802 5803 5805 5805 5805 5805 5805 5806 5807
5857 5855 5853 5850 5847 5844 5841 5839 5836 5833 5831 5828 5826 5824 5822 5820 5818 5815 5812 5809 5806 5804 5802 5800 5798 5797 5796 5796 5795 5794 5793 5793 5793 5792 5791 5792 5794 5795 5795 5795 5795 5796 5797
5852 5849 5847 5844 5842 5839 5836 5833 5830 5828 5825 5823 5820 5818 5816 5813 5810 5806 5803 5799 5795 5793 5790 5789 5788 5787 5786 5786 5785 5784 5783 5783 5783 5782 5782 5782 5782 5784 5785 5785 5785 5785 5786
5846 5844 5842 5839 5837 5834 5831 5828 5825 5823 5821 5818 5816 5813 5810 5807 5803 5798 5794 5790 5786 5782 5779 5778 5776 5775 5775 5774 5774 5773 5773 5772 5772 5772 5772 5772 5772 5772 5773 5775 5775 5774 5775
5841 5839 5837 5835 5832 5829 5826 5823 5820 5818 5815 5813 5810 5807 5804 5800 5797 5792 5787 5782 5777 5772 5769 5766 5765 5763 5763 5762 5762 5762 5762 5762 5761 5761 5761 5761 5762 5762 5762 5763 5764 5764 5765
5836 5834 5832 5830 5827 5824 5821 5818 5815 5813 5810 5807 5804 5800 5797 5793 5789 5785 5780 5775 5770 5765 5760 5756 5754 5752 5751 5750 5750 5750 5750 5750 5751 5751 5751 5751 5751 5751 5751 5752 5753 5754 5755
5830 5829 5827 5824 5820 5817 5815 5812 5809 5806 5803 5800 5796 5793 5789 5785 5781 5777 5772 5768 5763 5757 5752 5748 5744 5741 5740 5739 5738 5738 5738 5739 5739 5739 5739 5739 5739 5740 5740 5741 5742 5744 5745
5823 5821 5818 5815 5812 5810 5807 5804 5801 5798 5794 5791 5787 5784 5780 5777 5773 5769 5764 5760 5755 5749 5744 5739 5735 5732 5730 5728 5727 5726 5726 5727 5727 5728 5728 5728 5728 5728 5729 5730 5732 5734 5736
5814 5812 5809 5806 5803 5800 5796 5793 5791 5788 5785 5781 5778 5775 5772 5768 5765 5761 5757 5752 5747 5742 5736 5731 5727 5723 5720 5718 5717 5716 5715 5715 5716 5716 5716 5717 5717 5718 5719 5720 5722 5725 5729
5804 5801 5798 5795 5792 5789 5786 5783 5780 5778 5775 5772 5769 5766 5762 5759 5756 5752 5748 5744 5740 5735 5729 5724 5720 5716 5713 5710 5708 5706 5705 5704 5705 5705 5706 5706 5707 5708 5710 5712 5714 5718 5721
5794 5791 5788 5784 5781 5778 5775 5772 5769 5766 5763 5761 5759 5756 5753 5750 5747 5744 5740 5736 5732 5728 5723 5718 5714 5710 5706 5703 5700 5698 5696 5695 5695 5696 5697 5698 5699 5700 5703 5705 5707 5711 5714
5783 5779 5776 5773 5770 5767 5764 5760 5757 5754 5751 5749 5747 5745 5742 5740 5737 5734 5731 5728 5725 5721 5716 5712 5708 5704 5701 5698 5695 5692 5690 5689 5688 5689 5689 5690 5692 5694 5697 5699 5702 5705 5708
5771 5767 5763 5760 5756 5753 5750 5747 5744 5741 5738 5736 5734 5733 5731 5729 5727 5725 5722 5719 5716 5713 5710 5706 5702 5699 5696 5692 5690 5687 5685 5684 5683 5683 5684 5685 5686 5689 5691 5693 5696 5699 5703
5757 5753 5749 5745 5741 5738 5735 5732 5729 5726 5724 5721 5720 5719 5718 5717 5716 5714 5712 5710 5708 5705 5702 5699 5696 5693 5690 5687 5685 5683 5681 5680 5679 5679 5679 5680 5682 5684 5686 5688 5691 5695 5698
5743 5738 5733 5728 5724 5721 5718 5715 5712 5710 5707 5705 5704 5703 5703 5702 5703 5702 5701 5700 5698 5696 5694 5692 5689 5687 5685 5682 5680 5678 5677 5676 5676 5675 5675 5676 5678 5680 5682 5684 5687 5691 5694
5727 5721 5716 5710 5706 5702 5699 5696 5694 5692 5690 5688 5687 5686 5686 5686 5686 5687 5687 5687 5687 5686 5684 5683 5682 5680 5678 5676 5675 5674 5672 5672 5672 5672 5672 5673 5674 5676 5678 5681 5684 5687 5690
5709 5703 5697 5692 5687 5682 5678 5674 5672 5671 5669 5668 5666 5666 5666 5666 5667 5669 5671 5672 5673 5673 5674 5673 5673 5672 5671 5670 5669 5668 5667 5667 5667 5667 5668 5669 5670 5672 5675 5677 5680 5684 5687
5689 5683 5676 5670 5665 5658 5652 5649 5648 5646 5644 5642 5641 5642 5642 5644 5645 5648 5651 5654 5657 5659 5661 5662 5663 5663 5663 5663 5662 5662 5662 5662 5662 5663 5663 5665 5667 5669 5671 5674 5677 5680 5683
5664 5655 5648 5643 5637 5630 5623 5620 5620 5618 5616 5615 5615 5616 5617 5619 5622 5625 5630 5635 5640 5644 5646 5649 5652 5653 5655 5655 5656 5656 5656 5657 5657 5658 5659 5661 5663 5666 5668 5671 5674 5677 5681
5638 5629 5622 5617 5612 5605 5597 5593 5593 5591 5589 5588 5589 5591 5594 5596 5599 5603 5608 5614 5621 5627 5632 5636 5640 5643 5645 5647 5648 5650 5651 5652 5653 5654 5655 5657 5660 5662 5665 5669 5672 5675 5678
5609 5600 5593 5589 5585 5578 5571 5567 5566 5564 5563 5565 5568 5572 5575 5578 5581 5584 5588 5595 5602 5610 5617 5623 5628 5632 5636 5638 5641 5643 5645 5647 5648 5650 5651 5654 5657 5660 5663 5667 5670 5673 5676
5586 5580 5574 5570 5567 5562 5556 5552 5550 5547 5548 5550 5554 5558 5561 5563 5566 5568 5572 5578 5585 5593 5602 5610 5616 5622 5627 5630 5633 5636 5638 5641 5644 5646 5648 5651 5654 5658 5661 5665 5668 5671 5674
5569 5564 5560 5556 5553 5549 5545 5541 5539 5537 5537 5540 5543 5546 5548 5550 5551 5553 5556 5561 5569 5577 5588 5597 5605 5612 5618 5622 5626 5629 5632 5636 5639 5642 5645 5648 5651 5655 5659 5662 5666 5668 5671
5557 5552 5547 5542 5539 5535 5532 5529 5527 5525 5526 5527 5530 5532 5534 5536 5537 5539 5541 5546 5554 5564 5574 5585 5594 5603 5610 5615 5620 5624 5627 5631 5635 5638 5642 5645 5648 5652 5656 5660 5663 5665 5668
5545 5538 5532 5527 5522 5518 5515 5513 5512 5511 5511 5512 5515 5518 5520 5522 5524 5527 5529 5534 5541 5552 5563 5574 5585 5595 5602 5608 5614 5619 5623 5627 5631 5635 5639 5642 5646 5650 5653 5657 5660 5662 5665